Temp
89 82 79 84 88 88 87 84 82 88 95 91 88 88 92 97 99 99 99 99 100 99 102 100 99 98 96 92 87 84 84 81 83 83 83 83 83 85 87 87 88 87 87 88
85 78 88 92 92 87 85 81 81 87 92 89 87 86 92 95 96 98 99 99 101 101 101 99 97 97 94 90 87 84 84 82 83 84 83 85 85 87 87 87 85 87 86 86
81 87 92 88 86 82 82 79 81 81 88 90 86 82 86 93 97 99 100 101 102 101 100 97 96 95 96 91 87 85 83 82 82 83 83 82 84 83 85 86 86 86 86 86
86 92 88 85 82 85 77 88 86 83 80 73 87 70 83 89 90 94 97 99 100 101 102 101 98 95 95 95 93 88 84 82 83 81 81 78 81 81 85 85 87 85 85 85
83 86 85 82 83 88 81 89 85 84 79 78 79 75 81 90 86 91 95 98 97 99 99 99 100 99 100 99 99 91 84 81 82 81 79 80 78 83 84 85 82 82 82 83
86 94 89 87 90 89 90 85 83 82 79 67 76 76 78 83 87 91 92 94 95 97 97 97 98 97 94 94 94 94 85 81 81 81 79 77 77 78 82 82 83 84 84 83
83 85 90 91 83 89 85 77 66 65 67 66 79 77 80 88 92 91 89 91 93 96 95 94 93 93 90 88 88 90 87 83 83 81 80 78 77 77 76 78 82 81 85 82
75 72 85 90 85 81 81 78 68 58 62 66 77 70 80 90 93 93 91 90 91 92 93 92 91 91 89 87 86 86 86 85 87 85 82 81 79 76 80 79 83 84 86 85
74 76 89 89 90 88 81 76 85 72 74 69 75 81 84 87 87 87 86 86 86 88 89 90 90 90 91 89 85 84 83 84 84 85 86 84 82 80 80 79 79 82 81 86
79 70 85 88 89 89 83 87 72 74 59 57 70 68 69 77 79 82 82 82 83 86 88 88 89 88 89 89 87 86 85 83 83 83 82 83 84 83 82 81 79 79 80 80
83 76 76 85 79 78 81 77 78 76 72 62 60 68 81 79 80 79 80 81 82 83 85 86 86 87 88 88 87 84 83 83 81 80 79 79 80 81 83 81 81 80 80 80
79 74 68 75 86 88 84 78 76 66 64 70 68 68 83 81 81 81 79 80 81 82 84 84 84 84 85 84 84 83 81 83 82 78 77 77 77 78 76 77 80 81 80 80
77 71 63 67 77 83 78 79 79 76 73 64 61 67 83 83 79 80 78 80 81 82 83 83 82 81 81 81 80 82 82 83 82 80 79 76 75 75 74 75 76 80 79 80
71 70 66 62 68 75 71 75 78 73 65 66 68 72 78 77 75 76 77 79 79 79 80 82 81 80 79 78 78 79 81 82 81 80 78 74 73 74 76 76 73 76 79 79
73 63 69 72 74 75 73 73 74 71 72 65 70 71 76 74 75 76 77 77 76 76 77 78 76 76 76 76 76 78 79 78 79 77 76 74 74 74 74 75 74 74 74 77
72 62 67 65 72 72 69 73 74 74 74 73 73 71 74 75 76 73 73 74 74 74 73 74 73 74 73 75 75 75 76 76 76 75 75 75 74 74 72 72 72 72 72 73
68 65 62 57 69 69 62 71 73 73 76 72 66 68 72 70 70 70 71 73 69 70 71 71 72 72 72 74 74 73 74 75 74 74 75 75 74 74 72 72 71 70 69 70
65 63 63 57 61 49 68 78 75 71 72 73 72 71 70 70 71 73 75 70 68 69 70 71 72 72 73 75 75 74 75 74 74 73 74 75 75 73 73 71 69 67 69 68
72 64 58 54 56 64 69 68 68 65 64 67 66 67 68 69 70 69 73 71 70 70 71 72 72 73 72 72 72 71 70 70 70 70 72 74 74 72 72 70 68 67 67 67
71 68 60 57 52 50 61 68 73 71 58 65 65 64 64 66 57 63 68 70 70 70 70 69 70 71 70 69 70 67 67 68 66 68 68 67 68 70 70 69 68 68 67 66
60 60 55 55 53 61 65 68 71 54 53 64 66 65 64 60 62 64 68 67 69 68 67 68 67 66 67 68 68 65 66 65 67 68 67 66 65 64 67 68 66 65 64 64
61 57 56 58 53 50 67 67 57 59 64 65 66 65 62 63 64 63 64 64 65 65 65 65 65 64 67 68 66 64 63 66 67 66 66 65 63 63 65 63 64 64 63 62
59 61 57 58 57 65 67 64 67 67 65 65 64 64 63 61 61 63 63 63 63 63 64 65 64 65 66 66 65 62 63 65 65 64 63 63 63 63 64 63 63 62 62 61
67 68 61 60 66 67 68 70 70 68 64 65 66 63 63 61 63 62 62 60 58 61 62 62 63 62 62 64 65 64 65 65 64 62 61 62 62 61 62 65 65 61 61 60
67 65 61 61 65 67 68 67 66 65 65 65 63 65 64 64 63 62 59 58 57 61 62 62 63 61 61 63 62 63 63 63 61 61 60 61 63 62 61 61 61 61 62 59
68 62 60 57 62 61 63 65 66 63 62 62 62 63 68 66 62 63 59 59 61 59 60 61 62 61 60 59 57 59 61 60 59 58 60 60 61 62 61 61 62 55 47 46
MSLP
1004.39 1003.86 1002.80 1002.25 1001.83 1001.47 1000.63 1000.18 999.78 998.96 998.57 998.67 998.77 999.17 998.86 998.61 998.41 998.42 998.65 999.35 999.57 1000.09 1000.92 1002.36 1003.84 1005.32 1006.66 1007.73 1008.54 1009.10 1009.89 1010.56 1011.47 1012.20 1012.76 1013.03 1013.20 1013.22 1013.48 1013.44 1013.49 1013.86 1014.37 1014.74
1003.34 1002.90 1001.93 1001.37 1001.02 1001.15 1001.11 1001.01 1000.64 1000.02 999.63 999.69 999.48 999.27 999.04 998.98 998.52 998.34 998.35 998.88 998.96 999.30 1000.19 1001.50 1002.86 1004.17 1005.52 1006.98 1008.26 1009.29 1009.87 1010.49 1011.03 1011.54 1012.05 1012.54 1012.76 1013.08 1013.24 1013.31 1013.33 1013.54 1013.95 1014.44
1002.19 1001.17 1001.33 1001.42 1001.36 1001.75 1001.82 1001.48 1000.89 1000.54 1000.08 999.77 999.62 999.24 998.92 998.63 998.34 998.16 998.33 998.63 999.03 999.40 999.91 1000.79 1002.13 1003.36 1004.62 1006.03 1007.42 1008.76 1009.88 1010.45 1010.88 1011.29 1011.84 1012.18 1012.42 1012.50 1012.56 1012.70 1012.97 1013.14 1013.47 1013.89
1001.66 1001.25 1001.15 1001.60 1001.66 1001.71 1001.39 1001.04 1001.00 1000.94 1000.65 1000.23 999.59 998.62 997.73 997.56 997.76 997.97 998.37 998.74 999.14 999.71 999.38 1000.20 1001.61 1002.85 1003.93 1005.15 1006.70 1007.96 1009.00 1010.03 1010.94 1011.47 1011.53 1011.79 1011.85 1011.84 1011.82 1011.82 1012.16 1012.56 1012.74 1013.14
1001.13 1000.88 1001.08 1001.21 1001.40 1001.37 1001.40 1001.13 1001.18 1001.23 1001.14 1000.92 1000.14 999.15 997.68 996.89 997.18 997.58 998.23 998.92 999.82 1000.15 1000.74 1001.36 1001.98 1002.31 1003.35 1004.42 1005.37 1006.80 1007.95 1008.82 1009.53 1010.49 1011.33 1011.78 1011.86 1011.78 1011.80 1011.80 1011.67 1011.88 1012.27 1012.54
1001.27 1001.00 1001.18 1001.13 1001.13 1001.43 1001.48 1001.62 1001.95 1001.90 1001.60 1000.88 999.93 999.29 997.72 996.95 997.23 997.88 999.07 999.98 1000.75 1001.11 1002.07 1002.86 1003.42 1004.06 1004.64 1005.66 1006.17 1006.11 1006.75 1007.33 1008.09 1008.81 1009.57 1010.08 1010.80 1011.11 1011.20 1011.29 1011.30 1011.20 1011.58 1012.10
1000.91 1000.79 1000.79 1001.37 1001.17 1001.14 1001.73 1002.08 1001.82 1001.40 1000.79 999.91 999.07 998.84 997.69 997.63 998.12 999.05 1000.00 1000.99 1001.75 1001.95 1002.89 1003.94 1004.73 1005.11 1006.00 1006.50 1006.95 1007.01 1007.12 1008.02 1008.79 1009.35 1009.43 1009.59 1009.85 1010.21 1010.13 1010.34 1010.64 1010.63 1010.79 1011.22
999.97 999.83 1000.03 1000.66 1001.06 1000.82 1001.19 1001.66 1001.54 1000.99 1000.59 1000.22 1000.22 999.25 998.03 998.29 998.87 999.96 1001.13 1002.20 1002.94 1003.54 1004.29 1005.10 1006.01 1006.45 1006.89 1007.31 1007.68 1007.99 1008.11 1008.16 1008.40 1008.83 1009.27 1009.39 1009.66 1010.16 1010.12 1009.87 1009.98 1009.81 1009.58 1009.65
1000.67 1000.06 1000.26 1000.61 1000.75 1000.98 1000.74 1000.82 1001.15 1001.37 1001.52 1000.96 1000.06 999.25 999.64 999.72 1000.52 1001.75 1002.98 1003.99 1004.51 1004.95 1005.56 1006.16 1006.77 1007.36 1007.43 1007.77 1008.17 1008.43 1008.63 1008.59 1008.65 1008.70 1008.32 1008.40 1008.72 1008.87 1009.02 1009.17 1009.33 1009.37 1009.31 1009.02
1001.87 1001.50 1000.67 1000.67 1001.46 1001.41 1001.28 1001.26 1001.63 1001.86 1002.13 1001.78 1000.73 1001.33 1001.65 1001.74 1002.38 1003.42 1004.41 1005.41 1006.05 1006.28 1006.61 1007.13 1007.47 1007.96 1008.09 1008.34 1008.65 1009.03 1009.23 1009.09 1008.99 1008.95 1008.93 1008.77 1008.06 1007.73 1007.95 1008.34 1008.47 1008.60 1008.64 1008.71
1003.00 1002.94 1002.06 1001.24 1001.50 1001.13 1000.93 1001.66 1002.08 1002.39 1002.72 1002.50 1002.17 1001.95 1002.31 1002.88 1003.54 1004.62 1005.85 1006.69 1007.19 1007.49 1007.71 1008.08 1008.42 1008.69 1008.82 1009.14 1009.55 1009.89 1009.93 1009.65 1009.52 1009.63 1009.46 1009.09 1008.59 1008.14 1007.43 1007.44 1007.59 1007.79 1008.01 1007.94
1004.66 1004.27 1003.46 1002.55 1001.74 1001.73 1001.70 1002.14 1002.75 1003.30 1003.61 1003.45 1003.26 1003.07 1003.48 1004.15 1005.06 1005.85 1006.87 1007.68 1008.09 1008.35 1008.53 1009.01 1009.28 1009.57 1009.74 1009.99 1010.23 1010.39 1010.48 1010.11 1009.99 1010.03 1009.95 1009.53 1008.92 1008.59 1008.26 1007.60 1006.93 1006.93 1006.91 1006.96
1005.76 1005.42 1004.91 1003.95 1003.07 1002.28 1002.39 1002.99 1003.33 1003.91 1004.33 1004.51 1004.32 1003.76 1003.94 1004.71 1005.90 1007.03 1007.66 1008.28 1008.57 1008.74 1008.95 1009.31 1009.62 1010.05 1010.33 1010.63 1010.76 1010.74 1010.62 1010.19 1010.11 1010.11 1010.19 1009.91 1009.37 1008.80 1008.41 1007.87 1007.22 1006.54 1006.29 1006.01
1007.30 1006.57 1006.11 1005.19 1003.79 1004.05 1003.91 1003.60 1003.71 1004.28 1004.61 1004.59 1004.38 1004.13 1004.29 1005.45 1006.67 1007.55 1008.29 1008.96 1009.34 1009.54 1009.68 1009.61 1009.85 1010.27 1010.97 1011.32 1011.35 1011.06 1010.70 1010.39 1010.20 1009.99 1009.90 1009.73 1009.55 1009.05 1008.22 1007.57 1007.25 1006.70 1005.81 1005.37
1007.97 1007.54 1007.02 1006.26 1005.56 1004.90 1004.60 1004.34 1004.18 1004.28 1004.56 1004.87 1005.14 1005.18 1005.60 1006.93 1007.72 1008.33 1008.98 1009.72 1010.22 1010.42 1010.58 1010.45 1010.81 1011.06 1011.40 1011.50 1011.36 1011.07 1010.77 1010.55 1010.14 1009.89 1009.60 1009.33 1008.95 1008.63 1008.27 1007.58 1007.02 1006.57 1006.14 1005.36
1008.29 1008.32 1007.88 1007.13 1006.48 1005.91 1005.17 1004.76 1004.53 1004.55 1004.78 1004.99 1005.58 1006.08 1007.52 1008.48 1009.17 1009.79 1010.34 1010.56 1010.72 1010.91 1011.27 1011.46 1011.69 1011.78 1011.69 1011.41 1011.11 1010.93 1010.65 1010.43 1010.15 1009.77 1009.30 1008.89 1008.51 1008.05 1007.74 1007.44 1006.93 1006.41 1005.81 1005.25
1008.47 1008.74 1008.64 1007.71 1006.99 1006.15 1005.19 1004.42 1004.25 1004.78 1005.01 1005.65 1006.25 1007.89 1008.90 1009.80 1010.43 1010.90 1010.98 1011.21 1011.71 1011.99 1012.12 1012.12 1012.09 1011.90 1011.68 1011.46 1011.16 1010.76 1010.39 1010.07 1009.70 1009.26 1008.79 1008.39 1007.96 1007.46 1007.14 1006.79 1006.66 1006.39 1005.79 1004.95
1008.89 1009.27 1009.34 1008.70 1008.16 1006.83 1005.27 1004.94 1005.50 1006.05 1006.56 1007.27 1007.83 1008.85 1010.09 1010.89 1011.41 1011.62 1011.76 1012.27 1012.66 1012.76 1012.73 1012.62 1012.34 1011.97 1011.65 1011.28 1010.95 1010.56 1010.11 1009.66 1009.23 1008.75 1008.35 1007.86 1007.36 1006.84 1006.43 1006.22 1006.14 1006.04 1005.67 1004.99
1008.68 1009.57 1009.72 1009.32 1008.34 1007.05 1006.27 1007.01 1007.23 1007.70 1008.76 1009.91 1010.24 1010.84 1011.59 1012.05 1012.40 1012.14 1012.34 1012.89 1013.04 1012.95 1012.72 1012.56 1012.39 1012.02 1011.67 1011.35 1011.10 1010.84 1010.39 1009.94 1009.52 1009.02 1008.00 1007.25 1006.71 1006.24 1005.88 1005.60 1005.48 1005.41 1005.12 1004.72
1008.36 1009.24 1010.14 1009.82 1008.94 1008.00 1008.18 1008.90 1009.24 1009.52 1010.32 1011.84 1012.33 1012.67 1013.05 1013.19 1013.07 1012.95 1013.44 1013.56 1013.39 1013.32 1013.18 1012.86 1012.59 1012.30 1011.81 1011.57 1011.21 1010.85 1010.33 1009.76 1009.30 1008.76 1008.16 1007.83 1007.19 1005.95 1005.25 1005.07 1004.95 1004.58 1004.55 1004.20
1008.59 1009.31 1009.67 1009.78 1009.58 1009.03 1009.83 1010.23 1010.42 1010.94 1012.89 1013.13 1013.38 1013.60 1013.83 1014.08 1014.40 1014.43 1014.28 1014.02 1013.96 1013.83 1013.71 1013.39 1013.13 1012.67 1012.12 1011.52 1010.97 1010.44 1009.90 1009.25 1008.82 1008.33 1007.82 1007.35 1006.85 1006.21 1005.55 1004.51 1004.30 1004.31 1004.14 1003.74
1007.64 1008.58 1009.06 1009.24 1009.52 1009.94 1011.16 1011.01 1011.83 1013.35 1013.54 1013.65 1013.91 1014.26 1014.62 1014.87 1014.89 1014.90 1014.73 1014.34 1014.11 1013.86 1013.58 1013.47 1012.89 1012.46 1011.79 1011.12 1010.55 1010.04 1009.48 1008.84 1008.35 1007.79 1007.18 1006.57 1006.22 1005.60 1004.99 1004.61 1004.22 1003.84 1003.54 1003.19
1008.27 1009.18 1009.83 1010.08 1010.34 1011.09 1011.75 1012.46 1013.12 1013.67 1013.90 1014.10 1014.50 1014.96 1015.23 1015.35 1015.26 1014.89 1014.49 1014.28 1014.19 1013.89 1013.46 1013.19 1012.58 1011.81 1011.26 1010.84 1010.25 1009.47 1008.75 1008.15 1007.54 1007.10 1006.55 1005.90 1005.39 1005.00 1004.40 1003.88 1003.54 1003.17 1002.85 1002.55
1008.81 1009.75 1010.10 1010.49 1010.61 1011.05 1011.64 1012.37 1013.02 1013.82 1014.53 1014.83 1015.05 1015.44 1015.34 1015.02 1014.68 1014.48 1014.51 1014.70 1014.67 1014.10 1013.61 1013.09 1012.52 1011.94 1011.22 1010.60 1009.96 1009.14 1008.27 1007.55 1006.98 1006.42 1005.84 1005.15 1004.57 1004.04 1003.54 1002.93 1002.50 1002.39 1002.19 1001.84
1009.53 1010.56 1010.71 1010.98 1011.24 1011.58 1012.17 1013.08 1013.89 1014.58 1015.02 1015.18 1015.34 1015.04 1014.76 1014.29 1014.30 1014.53 1014.78 1014.98 1014.79 1014.15 1013.60 1013.11 1012.41 1011.93 1011.25 1010.58 1010.03 1009.17 1008.16 1007.39 1006.60 1006.00 1005.16 1004.33 1003.70 1003.18 1002.68 1002.05 1001.77 1001.65 1001.29 1001.09
1010.15 1010.63 1010.96 1011.52 1012.57 1013.02 1013.20 1013.98 1014.58 1014.96 1015.36 1015.40 1015.24 1014.88 1013.99 1014.15 1014.36 1014.42 1014.89 1014.95 1014.53 1014.21 1013.54 1012.91 1012.46 1012.09 1011.59 1011.20 1010.47 1009.45 1008.40 1007.58 1006.58 1005.53 1004.62 1003.89 1003.25 1002.69 1002.11 1001.41 1000.69 1000.04 1000.36 1000.18
Wind_Speed
13 11 13 17 19 17 20 14 15 15 7 9 5 8 16 15 13 14 10 11 11 16 19 21 19 18 15 14 12 13 11 11 11 11 9 8 10 8 8 7 8 9 10 9
10 13 16 15 12 7 11 11 14 15 14 13 15 15 15 15 18 12 11 8 10 11 16 20 20 19 19 16 12 11 10 9 8 10 10 9 7 8 7 7 5 6 9 8
16 14 10 7 6 6 12 12 13 13 12 11 11 15 16 17 19 12 14 6 7 10 6 18 20 19 18 17 17 13 11 8 9 7 6 6 7 6 8 8 9 7 8 11
11 14 7 6 10 10 12 14 14 11 12 9 12 14 14 19 17 14 14 5 12 6 10 13 18 18 17 17 17 16 14 12 9 9 7 11 10 11 11 9 10 10 11 10
12 12 9 8 11 9 11 8 9 7 9 12 15 10 12 1 17 11 10 2 13 14 16 17 19 12 18 15 15 18 18 17 15 15 14 7 11 9 7 9 7 11 12 14
15 4 4 10 11 11 8 4 8 11 12 12 16 13 12 1 8 9 18 16 14 14 15 14 15 17 16 15 11 2 18 20 20 18 19 21 16 14 10 12 10 8 9 12
16 16 13 7 10 10 8 9 8 10 11 12 9 14 12 8 13 18 17 16 14 14 14 14 14 14 13 14 13 11 9 11 11 14 15 18 19 16 16 12 13 10 10 12
12 15 17 13 8 8 14 11 9 13 12 8 12 7 9 17 15 17 18 15 13 13 13 14 13 11 9 10 10 12 12 10 6 11 15 14 15 11 12 12 13 11 13 12
8 5 12 6 3 7 7 12 12 11 12 12 9 11 20 19 19 18 16 14 13 11 10 9 12 9 10 9 10 11 10 9 10 11 6 10 15 16 15 16 11 15 14 11
5 6 7 11 1 9 10 10 5 6 8 10 10 7 5 11 14 13 14 13 10 10 10 9 10 9 9 10 10 12 11 11 11 12 11 10 9 12 14 13 14 14 13 16
8 4 13 6 6 12 6 10 7 9 7 8 9 4 9 12 12 13 11 10 9 8 10 10 10 11 12 13 14 12 12 12 10 10 11 13 10 13 6 9 12 14 15 14
6 2 9 15 16 14 8 10 10 7 9 9 10 7 12 11 10 10 9 7 6 6 7 8 8 10 10 11 11 11 10 10 11 10 11 11 12 11 11 9 9 9 12 14
5 5 7 13 13 15 9 6 8 7 3 9 10 9 11 9 14 9 8 8 6 6 8 7 8 9 11 12 11 12 12 11 9 7 11 13 11 11 10 10 13 10 12 14
5 4 7 10 18 13 11 13 8 10 7 10 12 15 10 11 10 5 6 8 12 13 14 12 6 7 12 12 13 14 13 12 12 11 11 8 11 14 12 10 11 15 12 13
2 6 11 14 15 16 15 16 16 17 15 15 15 17 12 13 10 10 9 9 12 13 14 13 16 14 14 13 13 13 13 14 12 13 12 11 8 9 12 13 9 11 14 14
7 5 8 13 15 16 19 19 20 19 17 17 16 14 13 14 14 15 15 15 15 13 15 17 16 15 15 15 15 14 13 13 14 14 14 13 12 10 8 11 12 12 13 14
5 5 7 12 13 15 15 14 11 10 17 5 6 11 12 10 12 13 16 16 16 16 16 16 16 15 14 15 15 15 16 15 15 15 15 14 15 12 11 9 10 14 16 14
8 8 7 11 11 13 13 0 1 4 7 11 3 10 12 12 13 14 15 16 16 16 15 14 14 14 15 16 16 16 16 16 16 16 17 16 15 15 12 8 9 12 14 15
11 8 8 10 11 13 17 10 4 4 8 15 13 12 11 14 15 14 16 18 16 15 13 13 16 17 16 16 16 17 17 17 17 20 20 17 15 15 12 11 10 11 12 15
3 7 8 11 12 11 11 10 6 3 5 10 9 9 11 13 11 11 18 19 18 17 16 15 17 19 15 17 16 16 17 16 18 17 17 18 20 18 12 10 11 11 11 13
9 8 11 10 11 10 8 4 5 8 5 7 9 10 12 11 11 15 17 17 17 18 19 18 18 17 18 17 16 17 17 16 16 16 16 17 16 17 19 10 7 9 12 13
7 9 10 12 14 14 9 2 5 6 6 8 10 12 13 14 16 17 19 19 18 18 19 19 15 15 17 16 16 17 18 17 16 16 17 16 16 13 12 15 13 12 13 13
10 4 5 6 4 6 11 7 3 4 6 8 11 12 14 14 16 17 16 17 17 18 16 16 16 16 15 17 16 17 18 17 16 17 17 16 16 14 13 13 14 12 11 9
7 5 4 5 6 3 4 4 3 10 12 12 11 12 12 15 15 13 15 15 14 13 14 14 16 17 18 16 17 17 17 18 16 17 17 15 14 14 14 11 11 9 9 9
5 4 4 5 7 5 5 9 11 10 10 10 8 12 14 13 13 14 11 12 12 13 13 15 14 14 17 19 19 19 19 18 15 15 16 15 12 12 13 12 11 9 10 10
9 7 5 3 6 5 6 9 9 7 7 9 10 14 14 14 12 12 11 12 12 12 14 11 15 16 18 20 19 20 19 17 18 16 12 11 10 11 11 10 11 13 15 11
Wind_Direction
200 224 228 228 225 246 271 309 304 309 324 312 238 278 295 297 275 269 186 226 219 183 175 170 178 174 179 183 177 180 179 187 163 176 189 197 206 209 203 229 197 170 184 191
204 229 251 238 256 341 316 299 277 291 303 299 291 276 257 262 269 266 274 269 258 196 176 172 172 175 178 177 180 182 189 178 188 182 186 201 208 211 213 211 238 205 180 181
246 238 204 311 290 247 264 266 281 269 287 291 278 261 259 253 262 242 268 229 322 309 217 174 171 179 177 179 177 177 189 193 198 209 185 194 213 223 203 207 207 204 188 183
225 260 227 224 248 255 251 238 230 268 278 272 285 303 244 217 222 237 243 207 239 356 262 165 171 176 182 177 179 183 179 183 198 203 227 210 213 214 217 202 208 203 192 187
238 224 253 244 252 228 259 347 338 294 282 288 279 262 270 293 182 197 171 177 64 47 43 35 19 170 178 184 189 184 185 186 189 195 210 235 227 228 242 224 222 202 191 192
261 259 284 249 224 244 291 282 259 262 256 253 249 254 277 73 164 128 78 77 65 70 66 48 31 40 33 29 8 311 188 192 195 193 194 205 222 215 226 227 220 218 194 196
223 236 218 216 261 196 205 248 256 233 224 240 301 215 241 77 88 85 90 79 59 59 65 62 39 36 34 36 23 17 19 197 205 215 214 212 221 220 215 222 219 217 214 196
235 199 193 178 228 246 200 226 258 300 308 342 200 253 253 107 115 101 94 87 81 62 57 64 58 31 63 58 47 29 17 16 34 216 225 231 227 237 239 225 234 225 224 208
320 135 86 118 201 240 252 238 233 278 294 280 289 287 13 82 85 85 89 81 74 79 77 59 79 38 33 33 42 33 12 9 22 7 322 226 231 220 226 232 225 233 253 242
326 312 170 141 191 261 274 304 301 244 253 268 277 42 80 108 109 106 95 87 69 54 55 51 46 45 31 25 37 35 13 354 18 11 357 345 316 233 229 228 230 234 237 245
289 298 286 239 217 247 214 213 241 258 281 316 310 64 101 73 101 100 92 73 65 43 47 22 28 26 19 21 23 16 6 348 14 13 346 339 341 346 274 231 235 233 241 248
47 324 280 278 310 326 308 301 309 296 277 280 293 304 101 119 99 100 96 80 57 50 37 8 30 8 11 8 6 356 351 346 356 4 342 332 337 342 350 300 251 248 245 235
20 219 254 257 251 251 250 291 267 274 276 268 281 284 136 128 121 73 48 36 1 16 2 348 23 1 8 4 355 344 336 336 339 344 332 331 324 323 326 328 311 261 252 255
320 281 270 281 304 324 285 282 230 237 253 275 269 284 295 89 95 88 47 14 2 360 351 344 344 359 6 352 341 334 324 332 327 328 318 308 312 317 313 317 326 320 282 265
325 260 262 268 275 288 294 289 286 282 280 271 274 282 316 48 33 36 37 17 351 345 333 336 12 6 348 337 326 320 328 320 319 320 310 302 287 296 310 308 315 312 315 293
139 275 293 278 281 277 269 266 263 263 270 273 272 272 43 36 22 13 357 346 333 340 8 352 347 338 330 325 322 320 310 320 317 307 302 304 304 294 292 304 313 311 304 309
235 263 287 272 293 299 274 269 277 278 251 341 300 47 56 21 9 354 344 340 19 360 347 338 331 324 323 317 311 314 315 311 305 306 301 305 298 298 297 295 311 313 309 298
259 267 264 274 284 269 275 318 12 308 353 9 326 38 25 3 352 343 319 16 354 342 333 323 314 314 313 314 311 305 302 302 298 297 298 291 296 294 289 293 299 304 304 304
213 235 272 256 261 276 280 47 64 29 70 36 18 20 357 348 331 300 7 349 337 329 325 333 335 328 323 327 328 324 315 309 309 311 306 295 292 291 297 290 284 288 293 297
246 210 241 262 270 272 80 81 38 73 210 43 18 359 343 336 312 329 345 331 329 336 334 332 330 321 327 323 317 311 301 308 304 301 306 312 319 299 287 299 284 276 283 288
197 219 230 236 250 264 63 35 316 239 48 2 356 346 342 331 331 332 322 322 325 329 328 326 326 318 316 306 311 306 299 295 296 298 295 299 302 301 303 294 310 300 290 288
241 209 220 228 244 243 19 151 346 24 349 343 349 350 339 336 324 330 324 314 320 321 322 317 311 306 300 308 307 308 300 300 303 296 293 290 292 291 295 303 305 299 291 281
232 14 337 3 51 136 103 91 53 11 337 347 355 345 334 329 313 309 309 340 331 329 329 316 309 311 315 316 312 309 304 302 298 295 296 295 291 286 284 285 284 285 279 273
160 146 254 351 105 76 71 34 54 32 14 352 337 335 311 303 305 307 344 336 325 312 317 317 319 322 314 321 318 307 313 302 299 296 298 294 289 282 279 273 272 280 272 269
24 137 265 273 283 328 80 42 28 0 337 344 329 311 299 293 340 343 336 327 311 317 318 317 323 334 325 331 336 330 321 325 315 308 297 291 287 286 284 280 273 270 269 255
278 343 244 35 55 340 350 14 356 359 341 337 309 307 318 358 328 338 333 318 315 323 308 321 333 334 348 340 331 327 332 322 318 312 307 301 298 294 291 290 293 269 247 254